Branson, MO

10:43 PM CDT on May 26, 2018 (GMT -0500)
Branson

Weather History for KBBG - February, 2014

Change the Weather History Date:

Friday, February 28, 2014

  Actual Average (KHRO) Record (KHRO)
Temperature  
Mean Temperature 32 °F -  
Max Temperature 41 °F 54 °F 82 °F (1952)
Min Temperature 24 °F 34 °F 9 °F (1962)
Degree Days  
Heating Degree Days 32    
Moisture  
Dew Point 22 °F    
Average Humidity 64    
Maximum Humidity 81    
Minimum Humidity 41    
Precipitation  
Precipitation 0.00 in - - ()
Sea Level Pressure  
Sea Level Pressure 29.93 in    
Wind  
Wind Speed 10 mph (SE)    
Max Wind Speed 18 mph    
Max Gust Speed 26 mph    
Visibility 10 miles    
Events      
Averages and records for this station are not official NWS values.
T = Trace of Precipitation, MM = Missing Value Source: NWS Daily Summary

Daily Weather History Graph

Daily Weather History Graph

Search for Another Location

Airport or City:

Astronomy

Feb. 28, 2014 Rise Set
Actual Time 6:44 AM CST 6:06 PM CST
Civil Twilight 6:18 AM CST 6:32 PM CST
Nautical Twilight 5:48 AM CST 7:02 PM CST
Astronomical Twilight 5:18 AM CST 7:32 PM CST
Moon 5:59 AM CST (2/28) 5:43 PM CST (2/28)
Length of Visible Light 12h 13m
Length of Day
11h 21m
Waning Crescent, 1% of the Moon is Illuminated
Feb 28
Waning Crescent
Mar 1
New
Mar 8
First Quarter
Mar 16
Full
Mar 23
Last Quarter

Hourly Weather History & Observations

Time (CST) Temp. Windchill Dew Point Humidity Pressure Visibility Wind Dir Wind Speed Gust Speed Precip Events Conditions
12:15 AM 32.0 °F 24.8 °F 10.4 °F 41% 29.93 in 10.0 mi SE 8.1 mph - N/A   Clear
12:35 AM 32.0 °F 24.8 °F 10.4 °F 41% 29.93 in 10.0 mi SE 8.1 mph - N/A   Partly Cloudy
12:55 AM 32.0 °F 24.2 °F 10.4 °F 41% 29.93 in 10.0 mi SE 9.2 mph - N/A   Partly Cloudy
1:15 AM 32.0 °F 24.2 °F 10.4 °F 41% 29.93 in 10.0 mi SE 9.2 mph - N/A   Partly Cloudy
1:35 AM 32.0 °F 28.7 °F 12.2 °F 44% 29.93 in 10.0 mi SE 3.5 mph - N/A   Partly Cloudy
1:55 AM 32.0 °F 25.6 °F 12.2 °F 44% 29.94 in 10.0 mi ESE 6.9 mph - N/A   Clear
2:15 AM 32.0 °F 23.0 °F 14.0 °F 48% 29.93 in 10.0 mi SE 11.5 mph - N/A   Clear
2:35 AM 32.0 °F 24.2 °F 15.8 °F 51% 29.93 in 10.0 mi ESE 9.2 mph - N/A   Clear
2:55 AM 32.0 °F 23.6 °F 15.8 °F 51% 29.92 in 10.0 mi SE 10.4 mph - N/A   Clear
3:15 AM 32.0 °F 24.2 °F 15.8 °F 51% 29.92 in 10.0 mi SE 9.2 mph - N/A   Clear
3:35 AM 30.2 °F 22.6 °F 17.6 °F 60% 29.92 in 10.0 mi SE 8.1 mph - N/A   Clear
3:55 AM 30.2 °F 20.2 °F 17.6 °F 60% 29.91 in 10.0 mi ESE 12.7 mph - N/A   Clear
4:15 AM 28.4 °F 17.5 °F 17.6 °F 64% 29.91 in 10.0 mi ESE 13.8 mph - N/A   Clear
4:35 AM 28.4 °F 17.0 °F 17.6 °F 64% 29.90 in 10.0 mi ESE 15.0 mph - N/A   Clear
4:55 AM 28.4 °F 16.6 °F 15.8 °F 59% 29.90 in 10.0 mi ESE 16.1 mph - N/A   Clear
5:15 AM 26.6 °F 14.3 °F 15.8 °F 64% 29.91 in 10.0 mi ESE 16.1 mph 20.7 mph N/A   Clear
5:35 AM 26.6 °F 14.7 °F 17.6 °F 69% 29.92 in 10.0 mi ESE 15.0 mph - N/A   Clear
5:55 AM 26.6 °F 14.7 °F 17.6 °F 69% 29.91 in 10.0 mi ESE 15.0 mph - N/A   Clear
6:15 AM 26.6 °F 14.7 °F 17.6 °F 69% 29.91 in 10.0 mi ESE 15.0 mph - N/A   Clear
6:35 AM 24.8 °F 12.9 °F 17.6 °F 74% 29.92 in 10.0 mi ESE 13.8 mph 19.6 mph N/A   Clear
6:45 AM 24.8 °F 14.0 °F 17.6 °F 74% 29.92 in 10.0 mi ESE 11.5 mph - N/A   Partly Cloudy
7:45 AM 26.6 °F 13.8 °F 17.6 °F 69% 29.92 in 10.0 mi ESE 17.3 mph 23.0 mph N/A   Partly Cloudy
8:50 AM 32.0 °F 21.2 °F 17.6 °F 55% 29.92 in 10.0 mi ESE 16.1 mph 23.0 mph N/A   Mostly Cloudy
9:50 AM 37.4 °F 27.5 °F 17.6 °F 45% 29.91 in 10.0 mi SE 18.4 mph 26.5 mph N/A   Overcast
10:45 AM 39.2 °F 30.5 °F 19.4 °F 45% 29.93 in 10.0 mi SE 16.1 mph - N/A   Overcast
11:55 AM 41.0 °F 34.7 °F 19.4 °F 42% 29.92 in 10.0 mi SE 10.4 mph 18.4 mph N/A   Mostly Cloudy
12:45 PM 39.2 °F 31.2 °F 26.6 °F 61% 29.89 in 10.0 mi SE 13.8 mph 24.2 mph N/A   Overcast
1:45 PM 37.4 °F 29.3 °F 32.0 °F 81% 29.87 in 10.0 mi SE 12.7 mph - N/A   Overcast
2:45 PM 39.2 °F 32.5 °F 32.0 °F 75% 29.86 in 10.0 mi SE 10.4 mph - N/A   Overcast
3:55 PM 37.4 °F 30.3 °F 28.4 °F 70% 29.88 in 10.0 mi SE 10.4 mph - N/A   Overcast
4:45 PM 37.4 °F 30.8 °F 30.2 °F 75% 29.89 in 10.0 mi ESE 9.2 mph - N/A   Overcast
6:45 PM 37.4 °F 29.8 °F 30.2 °F 75% 29.92 in 10.0 mi SE 11.5 mph - N/A   Overcast
7:45 PM 37.4 °F 30.8 °F 30.2 °F 75% 29.94 in 10.0 mi SE 9.2 mph - N/A   Overcast
8:45 PM 37.4 °F 32.8 °F 32.0 °F 81% 29.96 in 10.0 mi SE 5.8 mph - N/A   Overcast
9:15 PM 37.4 °F 29.8 °F 32.0 °F 81% 29.95 in 10.0 mi SE 11.5 mph - N/A   Overcast
9:35 PM 37.4 °F 30.3 °F 32.0 °F 81% 29.96 in 10.0 mi SE 10.4 mph - N/A   Overcast
9:55 PM 37.4 °F 31.4 °F 32.0 °F 81% 29.97 in 10.0 mi SSE 8.1 mph - N/A   Overcast
10:15 PM 37.4 °F 32.1 °F 32.0 °F 81% 29.98 in 10.0 mi SSE 6.9 mph - N/A   Overcast
10:35 PM 37.4 °F - 32.0 °F 81% 29.99 in 10.0 mi Calm Calm - N/A   Overcast
10:55 PM 37.4 °F 34.9 °F 32.0 °F 81% 30.00 in 10.0 mi SSE 3.5 mph - N/A   Overcast
11:15 PM 37.4 °F 34.9 °F 32.0 °F 81% 30.00 in 10.0 mi ESE 3.5 mph - N/A   Overcast
11:35 PM 37.4 °F 34.9 °F 32.0 °F 81% 30.00 in 10.0 mi ESE 3.5 mph - N/A   Overcast
11:55 PM 37.4 °F 33.8 °F 32.0 °F 81% 30.00 in 10.0 mi ESE 4.6 mph - N/A   Overcast